TimeCST,TemperatureF,Dew PointF,Humidity,Sea Level PressureIn,VisibilityMPH,Wind Direction,Wind SpeedMPH,Gust SpeedMPH,PrecipitationIn,Events,Conditions,WindDirDegrees,DateUTC
12:52 AM,59.0,32.0,36,29.45,-9999.0,SSW,20.7,28.8,N/A,,Unknown,200,2012-12-03 06:52:00
1:52 AM,57.0,33.1,40,29.43,-9999.0,South,18.4,-,N/A,,Unknown,190,2012-12-03 07:52:00
2:52 AM,55.9,32.0,40,29.46,-9999.0,SSW,10.4,-,N/A,,Unknown,210,2012-12-03 08:52:00
3:52 AM,51.1,30.9,46,29.44,-9999.0,South,6.9,-,N/A,,Unknown,170,2012-12-03 09:52:00
4:52 AM,53.1,30.0,41,29.45,-9999.0,SW,11.5,-,N/A,,Unknown,230,2012-12-03 10:52:00
5:52 AM,57.0,35.1,44,29.51,-9999.0,NW,29.9,44.9,N/A,,Unknown,320,2012-12-03 11:52:00
6:52 AM,54.0,36.0,51,29.62,-9999.0,NW,20.7,34.5,N/A,,Unknown,320,2012-12-03 12:52:00
7:52 AM,51.1,37.9,61,29.69,-9999.0,North,-9999.0,-,N/A,,Unknown,0,2012-12-03 13:52:00
8:52 AM,50.0,37.9,63,29.72,-9999.0,NW,12.7,-,N/A,,Unknown,320,2012-12-03 14:52:00
9:52 AM,52.0,37.0,57,29.78,-9999.0,WNW,13.8,23.0,N/A,,Unknown,300,2012-12-03 15:52:00
10:52 AM,55.0,27.0,34,29.80,-9999.0,NW,24.2,38.0,N/A,,Unknown,320,2012-12-03 16:52:00
11:52 AM,55.9,24.1,29,29.82,-9999.0,NW,23.0,35.7,N/A,,Unknown,320,2012-12-03 17:52:00
12:52 PM,55.9,21.9,27,29.83,-9999.0,NW,16.1,31.1,N/A,,Unknown,320,2012-12-03 18:52:00
1:52 PM,57.0,21.0,25,29.85,-9999.0,NW,21.9,26.5,N/A,,Unknown,310,2012-12-03 19:52:00
2:52 PM,55.9,19.0,24,29.87,-9999.0,WNW,20.7,31.1,N/A,,Unknown,300,2012-12-03 20:52:00
3:52 PM,55.0,19.0,24,29.91,-9999.0,NW,16.1,21.9,N/A,,Unknown,310,2012-12-03 21:52:00
4:52 PM,48.9,19.0,31,29.94,-9999.0,West,8.1,-,N/A,,Unknown,280,2012-12-03 22:52:00
5:52 PM,42.1,18.0,38,29.96,-9999.0,West,9.2,-,N/A,,Unknown,260,2012-12-03 23:52:00
6:52 PM,41.0,18.0,40,29.99,-9999.0,WSW,8.1,-,N/A,,Unknown,250,2012-12-04 00:52:00
7:52 PM,37.0,18.0,46,30.02,-9999.0,WSW,9.2,-,N/A,,Unknown,250,2012-12-04 01:52:00
8:52 PM,37.0,18.0,46,30.03,-9999.0,WSW,8.1,-,N/A,,Unknown,240,2012-12-04 02:52:00
9:52 PM,37.9,17.1,43,30.04,-9999.0,SW,11.5,-,N/A,,Unknown,230,2012-12-04 03:52:00
10:52 PM,35.1,16.0,46,30.06,-9999.0,WSW,6.9,-,N/A,,Unknown,250,2012-12-04 04:52:00
11:52 PM,35.1,16.0,46,30.08,-9999.0,WSW,6.9,-,N/A,,Unknown,250,2012-12-04 05:52:00